Versailles, OH

5:33 PM EDT on September 24, 2016 (GMT -0400)
Darke County

Weather History for KVES - November, 2013

Change the Weather History Date:

Wednesday, November 27, 2013

  Actual Average (KDAY) Record (KDAY)
Temperature  
Mean Temperature 26 °F 38 °F  
Max Temperature 30 °F 45 °F 74 °F (1990)
Min Temperature 23 °F 30 °F 0 °F (1930)
Degree Days  
Heating Degree Days 38 27  
Month to date heating degree days 579  
Since 1 July heating degree days 1026  
Cooling Degree Days 0 0  
Month to date cooling degree days 0  
Year to date cooling degree days 891  
Moisture  
Dew Point 20 °F    
Average Humidity 79    
Maximum Humidity 93    
Minimum Humidity 59    
Precipitation  
Precipitation 0.00 in 0.12 in 1.15 in (1994)
Month to date precipitation 3.06  
Year to date precipitation 37.60  
Snow  
Snow 0.00 in 0.10 in 2.20 in (1977)
Month to date snowfall 0.5  
Since 1 July snowfall 0.9  
Since 1 September snowfall 0.9  
Snow Depth -    
Sea Level Pressure  
Sea Level Pressure 30.05 in    
Wind  
Wind Speed 14 mph (NW)    
Max Wind Speed 22 mph    
Max Gust Speed 28 mph    
Visibility 10 miles    
Events Snow    
T = Trace of Precipitation, MM = Missing Value Source: NWS Daily Summary

Daily Weather History Graph

Daily Weather History Graph

Search for Another Location

Airport or City:

Trip Planner

Search our weather history database for the weather conditions in past years. The results will help you decide how hot, cold, wet, or windy it might be!

Date:

Astronomy

Nov. 27, 2013 Rise Set
Actual Time 7:37 AM EST 5:14 PM EST
Civil Twilight 7:07 AM EST 5:43 PM EST
Nautical Twilight 6:34 AM EST 6:17 PM EST
Astronomical Twilight 6:01 AM EST 6:50 PM EST
Moon 1:38 AM EST (11/27) 1:51 PM EST (11/27)
Length of Visible Light 10h 36m
Length of Day
9h 36m
Waning Crescent, 32% of the Moon is Illuminated
Nov 27
Waning Crescent
Dec 2
New
Dec 9
First Quarter
Dec 17
Full
Dec 25
Last Quarter

Hourly Weather History & Observations

Time (EST) Temp. Windchill Dew Point Humidity Pressure Visibility Wind Dir Wind Speed Gust Speed Precip Events Conditions
12:15 AM 30.2 °F 20.8 °F 26.6 °F 86% 29.92 in 10.0 mi NNW 11.5 mph 23.0 mph N/A   Overcast
12:35 AM 30.2 °F 20.8 °F 26.6 °F 86% 29.92 in 10.0 mi NNW 11.5 mph - N/A   Overcast
12:55 AM 30.2 °F 19.3 °F 26.6 °F 86% 29.91 in 10.0 mi NNW 15.0 mph 18.4 mph N/A   Overcast
1:15 AM 30.2 °F 20.2 °F 26.6 °F 86% 29.91 in 10.0 mi NNW 12.7 mph 18.4 mph N/A   Overcast
1:35 AM 30.2 °F 17.8 °F 23.0 °F 75% 29.91 in 10.0 mi North 19.6 mph 25.3 mph N/A   Overcast
1:55 AM 28.4 °F 17.5 °F 23.0 °F 80% 29.92 in 10.0 mi North 13.8 mph 23.0 mph N/A   Overcast
2:15 AM 28.4 °F 17.0 °F 23.0 °F 80% 29.92 in 10.0 mi North 15.0 mph 21.9 mph N/A   Mostly Cloudy
2:35 AM 26.6 °F 17.5 °F 21.2 °F 80% 29.93 in 10.0 mi NNW 9.2 mph - N/A   Clear
2:55 AM 26.6 °F 14.7 °F 23.0 °F 86% 29.93 in 10.0 mi NW 15.0 mph 18.4 mph N/A   Scattered Clouds
3:15 AM 26.6 °F 16.2 °F 21.2 °F 80% 29.94 in 10.0 mi NW 11.5 mph - N/A   Clear
3:35 AM 26.6 °F 15.7 °F 21.2 °F 80% 29.94 in 10.0 mi NNW 12.7 mph - N/A   Clear
3:55 AM 24.8 °F 13.4 °F 19.4 °F 80% 29.94 in 10.0 mi NW 12.7 mph 17.3 mph N/A   Clear
4:15 AM 24.8 °F 14.6 °F 19.4 °F 80% 29.94 in 10.0 mi NW 10.4 mph - N/A   Clear
4:35 AM 24.8 °F 14.6 °F 19.4 °F 80% 29.94 in 10.0 mi NNW 10.4 mph - N/A   Clear
4:55 AM 23.0 °F 13.1 °F 19.4 °F 86% 29.94 in 10.0 mi NW 9.2 mph - N/A   Clear
5:15 AM 23.0 °F 11.7 °F 19.4 °F 86% 29.96 in 10.0 mi NNW 11.5 mph - N/A   Clear
5:35 AM 23.0 °F 10.1 °F 19.4 °F 86% 29.97 in 10.0 mi NNW 15.0 mph 19.6 mph N/A   Clear
5:55 AM 23.0 °F 11.7 °F 19.4 °F 86% 29.98 in 10.0 mi NNW 11.5 mph 17.3 mph N/A   Scattered Clouds
6:15 AM 23.0 °F 11.7 °F 19.4 °F 86% 29.98 in 10.0 mi NNW 11.5 mph 17.3 mph N/A   Overcast
6:35 AM 23.0 °F 11.1 °F 19.4 °F 86% 29.99 in 10.0 mi NNW 12.7 mph 19.6 mph N/A   Overcast
6:55 AM 23.0 °F 9.6 °F 19.4 °F 86% 29.99 in 10.0 mi NNW 16.1 mph 20.7 mph N/A   Overcast
7:15 AM 23.0 °F 9.6 °F 19.4 °F 86% 30.00 in 10.0 mi NNW 16.1 mph 23.0 mph N/A   Overcast
7:35 AM 23.0 °F 10.6 °F 19.4 °F 86% 30.01 in 10.0 mi NNW 13.8 mph 20.7 mph N/A   Overcast
7:55 AM 24.8 °F 12.9 °F 19.4 °F 80% 30.01 in 10.0 mi NNW 13.8 mph 17.3 mph N/A   Overcast
8:15 AM 24.8 °F 14.0 °F 19.4 °F 80% 30.02 in 10.0 mi NNW 11.5 mph 21.9 mph N/A   Overcast
8:35 AM 24.8 °F 12.9 °F 19.4 °F 80% 30.02 in 10.0 mi NNW 13.8 mph 19.6 mph N/A   Overcast
8:55 AM 23.0 °F 11.1 °F 19.4 °F 86% 30.02 in 10.0 mi NNW 12.7 mph - N/A   Mostly Cloudy
9:15 AM 23.0 °F 11.7 °F 19.4 °F 86% 30.03 in 10.0 mi North 11.5 mph - N/A   Scattered Clouds
9:35 AM 26.6 °F 13.1 °F 17.6 °F 69% 30.04 in 10.0 mi North 19.6 mph 24.2 mph N/A   Overcast
9:55 AM 26.6 °F 14.7 °F 17.6 °F 69% 30.04 in 10.0 mi NNW 15.0 mph 21.9 mph N/A   Overcast
10:55 AM 26.6 °F 14.3 °F 17.6 °F 69% 30.04 in 10.0 mi North 16.1 mph 24.2 mph N/A   Overcast
11:15 AM 26.6 °F 14.7 °F 19.4 °F 74% 30.03 in 10.0 mi NW 15.0 mph 19.6 mph N/A   Overcast
11:35 AM 26.6 °F 13.4 °F 17.6 °F 69% 30.03 in 10.0 mi NW 18.4 mph 23.0 mph N/A   Overcast
11:55 AM 28.4 °F 16.6 °F 17.6 °F 64% 30.02 in 10.0 mi NW 16.1 mph 20.7 mph N/A   Overcast
12:15 PM 28.4 °F 16.6 °F 15.8 °F 59% 30.02 in 10.0 mi NNW 16.1 mph 21.9 mph N/A   Overcast
12:35 PM 28.4 °F 17.0 °F 17.6 °F 64% 30.01 in 10.0 mi NNW 15.0 mph 21.9 mph N/A   Mostly Cloudy
12:55 PM 28.4 °F 17.0 °F 17.6 °F 64% 30.02 in 10.0 mi NW 15.0 mph 25.3 mph N/A   Mostly Cloudy
1:15 PM 28.4 °F 15.4 °F 17.6 °F 64% 30.02 in 7.0 mi NW 19.6 mph 26.5 mph N/A Snow Light Snow
1:35 PM 28.4 °F 15.1 °F 15.8 °F 59% 30.01 in 10.0 mi NW 20.7 mph 25.3 mph N/A   Mostly Cloudy
1:55 PM 30.2 °F 17.1 °F 17.6 °F 60% 30.02 in 10.0 mi NW 21.9 mph 27.6 mph N/A   Mostly Cloudy
2:15 PM 28.4 °F 15.8 °F 17.6 °F 64% 30.02 in 10.0 mi NW 18.4 mph 27.6 mph N/A   Overcast
2:35 PM 28.4 °F 16.2 °F 17.6 °F 64% 30.03 in 10.0 mi WNW 17.3 mph 23.0 mph N/A   Overcast
2:55 PM 28.4 °F 15.4 °F 19.4 °F 69% 30.03 in 10.0 mi WNW 19.6 mph 25.3 mph N/A   Mostly Cloudy
3:15 PM 28.4 °F 16.2 °F 19.4 °F 69% 30.05 in 10.0 mi WNW 17.3 mph 27.6 mph N/A   Overcast
3:35 PM 26.6 °F 15.2 °F 21.2 °F 80% 30.06 in 10.0 mi WNW 13.8 mph 21.9 mph N/A   Overcast
3:55 PM 26.6 °F 13.8 °F 21.2 °F 80% 30.07 in 10.0 mi WNW 17.3 mph 21.9 mph N/A   Overcast
4:15 PM 26.6 °F 13.1 °F 21.2 °F 80% 30.08 in 10.0 mi WNW 19.6 mph 25.3 mph N/A   Overcast
4:35 PM 26.6 °F 13.4 °F 21.2 °F 80% 30.09 in 10.0 mi WNW 18.4 mph 25.3 mph N/A   Overcast
4:55 PM 26.6 °F 14.3 °F 21.2 °F 80% 30.10 in 10.0 mi WNW 16.1 mph 23.0 mph N/A Snow Light Snow
5:15 PM 26.6 °F 13.8 °F 21.2 °F 80% 30.11 in 10.0 mi WNW 17.3 mph 23.0 mph N/A Snow Light Snow
5:35 PM 26.6 °F 15.7 °F 21.2 °F 80% 30.12 in 10.0 mi WNW 12.7 mph 23.0 mph N/A Snow Light Snow
5:55 PM 26.6 °F 14.7 °F 21.2 °F 80% 30.13 in 10.0 mi WNW 15.0 mph 20.7 mph N/A   Overcast
6:15 PM 26.6 °F 16.2 °F 21.2 °F 80% 30.14 in 10.0 mi West 11.5 mph 20.7 mph N/A Snow Light Snow
6:35 PM 26.6 °F 16.2 °F 23.0 °F 86% 30.14 in 10.0 mi West 11.5 mph - N/A Snow Light Snow
6:55 PM 26.6 °F 15.2 °F 23.0 °F 86% 30.15 in 10.0 mi West 13.8 mph 17.3 mph N/A Snow Light Snow
7:15 PM 24.8 °F 14.0 °F 23.0 °F 93% 30.15 in 10.0 mi West 11.5 mph - N/A   Overcast
7:35 PM 26.6 °F 14.7 °F 23.0 °F 86% 30.16 in 10.0 mi West 15.0 mph - N/A Snow Light Snow
7:55 PM 26.6 °F 15.7 °F 23.0 °F 86% 30.17 in 10.0 mi West 12.7 mph 18.4 mph N/A Snow Light Snow
8:15 PM 26.6 °F 15.7 °F 23.0 °F 86% 30.17 in 10.0 mi West 12.7 mph 17.3 mph N/A Snow Light Snow
8:35 PM 26.6 °F 16.2 °F 23.0 °F 86% 30.18 in 7.0 mi West 11.5 mph 17.3 mph N/A Snow Light Snow
8:55 PM 26.6 °F 16.8 °F 23.0 °F 86% 30.19 in 10.0 mi West 10.4 mph - N/A Snow Light Snow
9:15 PM 26.6 °F 16.2 °F 21.2 °F 80% 30.19 in 10.0 mi WNW 11.5 mph 18.4 mph N/A Snow Light Snow
9:35 PM 26.6 °F 15.7 °F 21.2 °F 80% 30.19 in 10.0 mi WNW 12.7 mph 20.7 mph N/A Snow Light Snow
9:55 PM 26.6 °F 16.8 °F 21.2 °F 80% 30.19 in 10.0 mi WNW 10.4 mph 17.3 mph N/A Snow Light Snow
10:15 PM 24.8 °F 14.6 °F 21.2 °F 86% 30.20 in 10.0 mi West 10.4 mph - N/A Snow Light Snow
10:35 PM 24.8 °F 14.0 °F 21.2 °F 86% 30.20 in 10.0 mi West 11.5 mph - N/A Snow Light Snow
10:55 PM 24.8 °F 14.0 °F 19.4 °F 80% 30.21 in 10.0 mi West 11.5 mph - N/A Snow Light Snow
11:15 PM 24.8 °F 14.6 °F 19.4 °F 80% 30.22 in 10.0 mi West 10.4 mph - N/A   Overcast
11:35 PM 24.8 °F 15.3 °F 19.4 °F 80% 30.22 in 10.0 mi WNW 9.2 mph 17.3 mph N/A   Overcast
11:55 PM 24.8 °F 14.0 °F 17.6 °F 74% 30.23 in 10.0 mi West 11.5 mph - N/A   Overcast